[[{"header":{"parameterUnit":"m.s-1","parameterCategory":1,"la1":30.2992,"la2":30.254,"lo1":-89.0895,"lo2":-89.0443,"dy":0.0025,"dx":0.0025,"nx":19,"ny":19,"refTime":"2026-04-22T21:00:00:Z","depth":0,"parameterNumber":2,"parameterNumberName":"U-component_of_WINDS"},"data":[0,0,0,-3.8332,-3.8335,-3.846,-3.8461,-3.8628,-3.863,0,0,0,0,0,0,0,0,0,0,0,-3.83,-3.8302,-3.8332,-3.8335,-3.846,-3.8461,-3.8628,-3.863,0,0,0,0,0,0,0,0,0,0,0,-3.83,-3.8301,-3.8303,-3.8336,-3.846,-3.8461,-3.8628,-3.853,0,0,0,0,0,0,0,0,0,0,-3.8407,-3.8384,-3.8301,-3.8303,-3.8336,-3.846,-3.8461,-3.8525,-3.8536,-3.8575,0,-3.8612,0,-3.8624,-3.8642,-3.8642,0,0,0,-3.8331,-3.8375,-3.8404,-3.8303,-3.8338,-3.846,-3.8403,-3.8531,-3.8544,-3.8589,-3.8614,-3.862,-3.8626,-3.8643,-3.8644,-3.8884,-3.8885,0,0,-3.8324,-3.8326,-3.8395,-3.8412,-3.8394,-3.8399,-3.8407,-3.8539,-3.8565,-3.8615,-3.8624,-3.8629,-3.8644,-3.8645,-3.8883,-3.8884,0,0,0,-3.8307,-3.8321,-3.8347,-3.8405,-3.8427,-3.8402,-3.8411,-3.8559,-3.8568,-3.8626,-3.8631,-3.8645,-3.8647,-3.8881,-3.8883,-3.895,0,0,0,-3.8302,-3.8311,-3.8344,-3.8346,-3.8425,-3.8495,-3.8429,-3.8558,-3.8573,-3.863,-3.8645,-3.8649,-3.888,-3.8882,-3.8945,-3.8981,0,0,0,-3.829,-3.831,-3.833,-3.8346,-3.84,-3.8493,-3.8509,-3.8562,-3.8577,-3.8642,-3.8649,-3.8879,-3.8882,-3.8941,-3.8974,-3.9044,0,0,0,-3.8278,-3.8388,-3.8331,-3.8456,-3.8399,-3.8535,-3.8508,-3.8608,-3.8673,-3.8646,-3.888,-3.8883,-3.894,-3.8969,-3.9039,-3.9102,-3.9129,0,0,-3.8418,-3.8405,-3.8478,-3.8431,-3.8577,-3.8515,-3.8671,-3.8727,-3.8731,-3.8832,-3.8838,-3.8947,-3.8973,-3.9043,-3.9283,-3.9304,0,0,0,-3.8523,-3.8576,-3.8614,-3.8676,-3.8723,-3.8765,-3.8798,-3.8819,-3.8905,-3.8784,-3.8992,-3.9008,-3.9048,-3.9078,-3.9097,-3.9131,-3.8897,-3.8897,-3.8897,-3.8723,-3.8723,-3.8845,-3.886,-3.892,-3.8953,-3.9001,-3.9035,-3.9017,-3.9066,-3.9095,-3.9241,-3.9276,-3.929,-3.9325,-3.913,-3.913,-3.9131,-3.9131,-3.8927,-3.9001,-3.8976,-3.9084,-3.9083,-3.9173,-3.9209,-3.9194,-3.9277,-3.9219,-3.9254,-3.9189,-3.9313,-3.9344,-3.9136,-3.9135,-3.9134,-3.9134,-3.9134,-3.9057,-3.9092,-3.9116,-3.9205,-3.9274,-3.9285,-3.9367,-3.9363,-3.936,-3.9396,-3.9425,-3.9424,-3.9421,-3.9411,-3.9411,-3.9412,-3.9412,-3.9412,-3.9413,-3.918,-3.9206,-3.9275,-3.9334,-3.9373,-3.9424,-3.9458,-3.9496,-3.9537,-3.9528,-3.9528,-3.9504,-3.9326,-3.928,-3.9421,-3.9419,-3.9418,-3.9417,-3.9417,-3.9384,-3.9338,-3.9445,-3.9484,-3.9552,-3.962,-3.9615,-3.9692,-3.9723,-3.9763,-3.9732,-3.9602,-3.9588,-3.9573,-3.9535,-3.9733,-3.9733,-3.9733,-3.9733,-3.9492,-3.9486,-3.9594,-3.9656,-3.9717,-3.9724,-3.9843,-3.9871,-3.9892,-3.9911,-3.9882,-3.9832,-3.9818,-3.9812,-3.9792,-3.9757,-4.0006,-4.0007,-4.0007,-3.9617,-3.9616,-3.9719,-3.974,-3.9793,-3.9838,-3.995,-4.0022,-4.0037,-4.0018,-3.9925,-3.9914,-3.9833,-3.9807,-3.9784,-3.9754,-3.9688,0,0]},{"header":{"parameterUnit":"m.s-1","parameterCategory":1,"la1":30.2992,"la2":30.254,"lo1":-89.0895,"lo2":-89.0443,"dy":0.0025,"dx":0.0025,"nx":19,"ny":19,"refTime":"2026-04-22T21:00:00:Z","depth":0,"parameterNumber":3,"parameterNumberName":"V-component_of_WINDS"},"data":[0,0,0,3.9837,3.9838,3.9854,3.9854,3.9891,3.9892,0,0,0,0,0,0,0,0,0,0,0,3.9843,3.9844,3.9837,3.9838,3.9854,3.9854,3.9891,3.9892,0,0,0,0,0,0,0,0,0,0,0,3.9843,3.9844,3.9844,3.9838,3.9854,3.9854,3.9891,3.9873,0,0,0,0,0,0,0,0,0,0,3.9855,3.987,3.9843,3.9844,3.9838,3.9854,3.9854,3.9872,3.9874,3.9892,0,3.991,0,3.9902,3.9896,3.9896,0,0,0,3.983,3.9868,3.9863,3.9844,3.9838,3.9854,3.9844,3.9873,3.9876,3.9895,3.991,3.9911,3.9902,3.9896,3.9896,4.0022,4.0023,0,0,3.9829,3.9852,3.9861,3.9865,3.9864,3.9844,3.9845,3.9874,3.9893,3.991,3.9912,3.9903,3.9896,3.9897,4.0021,4.0023,0,0,0,3.9832,3.9851,3.9845,3.9864,3.9866,3.9845,3.9846,3.9891,3.9887,3.9912,3.9903,3.9897,3.9897,4.002,4.0022,4.009,0,0,0,3.9831,3.9853,3.9845,3.9859,3.9866,3.9879,3.9863,3.9885,3.9888,3.9903,3.9897,3.9898,4.0019,4.0021,4.0086,4.0118,0,0,0,3.9838,3.9854,3.9859,3.986,3.9868,3.9878,3.9875,3.9885,3.9883,3.9896,3.9898,4.0019,4.0021,4.0082,4.0112,4.0157,0,0,0,3.9853,3.992,3.9861,3.9933,3.9868,3.992,3.9875,3.9913,3.9932,3.9897,4.0019,4.0022,4.0081,4.0108,4.0153,4.0199,4.022,0,0,3.995,3.9933,3.9974,3.9921,3.9989,3.9916,3.9995,3.9991,3.9972,4.0007,4.0009,4.0087,4.0112,4.0156,4.0332,4.035,0,0,0,4.0012,4.0041,4.0055,4.0074,4.0073,4.0074,4.0056,4.0055,4.0083,3.9994,4.0115,4.0129,4.0155,4.0175,4.019,4.021,4.0032,4.0032,4.0032,4.0182,4.0154,4.0219,4.0193,4.0212,4.0193,4.0205,4.02,4.0167,4.0196,4.0206,4.0316,4.0341,4.0352,4.0373,4.0228,4.0228,4.0229,4.0229,4.0321,4.0358,4.0312,4.0358,4.0328,4.0367,4.0351,4.0326,4.0358,4.0306,4.0327,4.0273,4.0371,4.0388,4.0234,4.0233,4.0232,4.0232,4.0231,4.0429,4.0441,4.0438,4.0463,4.0485,4.0456,4.0489,4.046,4.0434,4.0455,4.0462,4.046,4.0455,4.046,4.0461,4.0461,4.0462,4.0462,4.0462,4.054,4.0535,4.0566,4.057,4.0578,4.0586,4.0568,4.0575,4.0576,4.0553,4.0553,4.0516,4.0386,4.0354,4.0468,4.0467,4.0466,4.0465,4.0465,4.0691,4.0652,4.0699,4.0708,4.071,4.0734,4.0698,4.0716,4.0718,4.0734,4.0693,4.0602,4.0582,4.0571,4.0543,4.07,4.07,4.07,4.07,4.0781,4.0768,4.0809,4.0824,4.0836,4.0808,4.0862,4.0849,4.0829,4.0829,4.0802,4.0764,4.0753,4.0739,4.0724,4.0698,4.089,4.0891,4.0891,4.0871,4.0858,4.0909,4.0889,4.0889,4.089,4.094,4.0959,4.0929,4.0898,4.0827,4.0819,4.0757,4.0739,4.0706,4.0683,4.0634,0,0]}]]